Weather in Izobilny

Russia / Stavropol Krai     45°22′06″N   41°42′31″E
temp.,
°C
wind,
m/s
gust,
m/s
humid.,
%
clouds,
%
prec.,
mm/h
press.,
hPa
HPBL,
m
20 april, tue
tue2000:00+13ese3491100 0.0 101383
03:00+13e51290100 0.3 1010376
06:00+12e81792100 0.1 1007478
09:00+16se81477100 0.1 1004389
12:00+20sse2366100 0.1 1005626
15:00+18wnw5876100 0.1 1007664
18:00+15w598596 0.3 1010564
21:00+13wsw399398 0.6 1012396
21 april, wed
wed2100:00+11wsw31271100 0.0 1013632
03:00+9wsw51377100 0.4 1016729
06:00+9w41193100 0.4 1017818
09:00+10w588298 2.3 1019652
12:00+12w4674100 0.0 1019924
15:00+13wsw457384 0.1 1019720
18:00+13wsw2279100 0.1 102068
21:00+11sse228690 0.1 102252
22 april, thu
thu2200:00+10sse2289100 0.0 102132
03:00+10ese2286100 0.1 102140
06:00+10e2386100 0.0 102266
09:00+11e4787100 0.1 1023391
12:00+11e5887100 0.1 1023517
15:00+13ese5776100 0.1 1022758
18:00+13ese3781100 0.0 1021336
21:00+11ese3788100 0.0 1022217
23 april, fri
fri2300:00+10sse2293100 0.0 102234
03:00+10s2290100 0.1 102130
06:00+9sw2595100 0.5 1023211
09:00+10wsw4589100 0.5 1023489
12:00+14wnw456911 0.1 10221043
15:00+17nw55515 0.1 10211788
18:00+15wnw24664 0.0 1021122
21:00+10sse0074100 0.0 102110
24 april, sat
sat2400:00+10se1173100 0.0 101910
03:00+10sse1173100 0.0 101910
06:00+11sw117599 0.0 102011
09:00+14sw2363100 0.0 1019455
12:00+16wnw46545 0.4 10191550
15:00+18w595128 0.4 10192007
18:00+15w35655 0.0 1019202
21:00+11wnw1180100 0.0 102111